Mullan Pass, ID

2:55 PM PDT on April 26, 2017 (GMT -0700)
Mullan Pass

Weather History for KMLP - May, 2013

Change the Weather History Date:

Monday, May 20, 2013

  Actual Average (K3TH) Record (K3TH)
Temperature  
Mean Temperature 47 °F -  
Max Temperature 55 °F 66 °F 81 °F (1998)
Min Temperature 39 °F 45 °F 42 °F (1999)
Degree Days  
Heating Degree Days 18    
Moisture  
Dew Point 37 °F    
Average Humidity 73    
Maximum Humidity 100    
Minimum Humidity 44    
Precipitation  
Precipitation 0.00 in - - ()
Sea Level Pressure  
Sea Level Pressure 30.10 in    
Wind  
Wind Speed 4 mph (NNW)    
Max Wind Speed 10 mph    
Max Gust Speed 20 mph    
Visibility 10 miles    
Events      
Averages and records for this station are not official NWS values.
T = Trace of Precipitation, MM = Missing Value Source: NWS Daily Summary

Daily Weather History Graph

Daily Weather History Graph

Search for Another Location

Airport or City:

Trip Planner

Search our weather history database for the weather conditions in past years. The results will help you decide how hot, cold, wet, or windy it might be!

Date:

Astronomy

May. 20, 2013 Rise Set
Actual Time 4:59 AM PDT 8:19 PM PDT
Civil Twilight 4:22 AM PDT 8:57 PM PDT
Nautical Twilight 3:33 AM PDT 9:46 PM PDT
Astronomical Twilight 2:30 AM PDT 10:49 PM PDT
Moon 3:13 PM PDT (5/20) 2:17 AM PDT (5/20)
Length of Visible Light 16h 34m
Length of Day
15h 19m
Waxing Gibbous, 76% of the Moon is Illuminated
May 20
Waxing Gibbous
May 24
Full
May 31
Last Quarter
Jun 8
New
Jun 16
First Quarter

Hourly Weather History & Observations

Time (PDT) Temp. Windchill Dew Point Humidity Pressure Visibility Wind Dir Wind Speed Gust Speed Precip Events Conditions
1:53 AM 39.0 °F 35.7 °F 39.0 °F 100% 30.16 in - NW 4.6 mph - N/A   Overcast
2:53 AM 39.0 °F 35.7 °F 37.9 °F 96% 30.14 in 10.0 mi NNW 4.6 mph - N/A   Mostly Cloudy
3:53 AM 39.0 °F 34.8 °F 37.9 °F 96% 30.14 in 10.0 mi NW 5.8 mph - N/A   Partly Cloudy
5:53 AM 39.0 °F 34.0 °F 37.9 °F 96% 30.15 in - NW 6.9 mph - N/A   Clear
6:18 AM 39.2 °F 34.2 °F 37.4 °F 93% 30.29 in - Variable 6.9 mph - N/A   Partly Cloudy
7:53 AM 42.1 °F - 39.9 °F 92% 30.16 in - Calm Calm - N/A   Partly Cloudy
8:48 AM 44.6 °F 43.1 °F 39.2 °F 81% 30.30 in 10.0 mi Variable 3.5 mph - N/A   Mostly Cloudy
8:53 AM 45.0 °F - 39.0 °F 80% 30.16 in 10.0 mi Calm Calm - N/A   Mostly Cloudy
9:02 AM 44.6 °F 43.1 °F 39.2 °F 81% 30.30 in 10.0 mi NNW 3.5 mph - N/A   Scattered Clouds
9:30 AM 44.6 °F - 39.2 °F 81% 30.29 in 10.0 mi Calm Calm - N/A   Mostly Cloudy
9:53 AM 45.0 °F - 39.0 °F 80% 30.17 in 10.0 mi Calm Calm - N/A   Overcast
10:22 AM 46.4 °F - 39.2 °F 76% 30.28 in 10.0 mi Calm Calm - N/A   Mostly Cloudy
10:53 AM 48.0 °F - 39.0 °F 71% 30.12 in 10.0 mi Calm Calm - N/A   Overcast
11:53 AM 46.9 °F - 39.0 °F 74% 30.15 in 10.0 mi North 3.5 mph - N/A   Overcast
12:53 PM 48.9 °F - 39.0 °F 69% 30.08 in 10.0 mi Calm Calm - N/A   Overcast
1:53 PM 54.0 °F - 37.9 °F 55% 30.05 in 10.0 mi Calm Calm - N/A   Overcast
2:53 PM 52.0 °F - 37.0 °F 57% 30.05 in 10.0 mi Calm Calm - N/A   Overcast
3:53 PM 53.1 °F - 34.0 °F 48% 30.03 in 10.0 mi Variable 5.8 mph - N/A   Clear
4:53 PM 55.9 °F - 34.0 °F 44% 29.99 in 10.0 mi Variable 3.5 mph - N/A   Clear
5:53 PM 53.1 °F - 34.0 °F 48% 29.98 in 10.0 mi South 3.5 mph - N/A   Clear
7:53 PM 50.0 °F - 35.1 °F 57% 29.94 in 10.0 mi SE 5.8 mph - N/A   Clear
8:53 PM 50.0 °F - 34.0 °F 54% 29.91 in 10.0 mi SE 6.9 mph - N/A   Clear
9:53 PM 48.0 °F - 34.0 °F 58% 29.90 in 10.0 mi Variable 6.9 mph - N/A   Clear
10:53 PM 46.9 °F - 35.1 °F 63% 29.86 in 10.0 mi SE 9.2 mph 18.4 mph N/A   Clear
11:53 PM 46.9 °F - 35.1 °F 63% 29.86 in 10.0 mi SE 10.4 mph 19.6 mph N/A   Clear